Regional Weather Roundup
Issued by NWS Upton, NY

Current Version | Previous Version | Graphics & Text | Print | Product List | Glossary Off
Versions: 1 2 3 4 5 6 7 8 9 10 11 12 13 14 15 16 17 18 19 20 21 22 23 24 25 26 27 28 29 30 31 32 33 34 35 36 37 38 39 40 41 42 43 44 45 46 47 48 49 50

000
ASUS41 KOKX 292105
RWROKX

REGIONAL WEATHER ROUNDUP
NATIONAL WEATHER SERVICE NEW YORK NY
500 PM EDT TUE JUL 29 2014

NOTE: "FAIR" INDICATES FEW OR NO CLOUDS BELOW 12,000 FEET WITH NO
SIGNIFICANT WEATHER AND/OR OBSTRUCTIONS TO VISIBILITY.

NYZ071-072-176-178-NJZ106-104-292200-
NEW YORK CITY METRO AREA


CITY           SKY/WX    TMP DP  RH WIND       PRES   REMARKS
CENTRAL PARK   PTSUNNY   74  49  41 MISG      29.93R
LAGUARDIA APRT MOSUNNY   75  51  43 NW9       29.89R
KENNEDY INTL   PTSUNNY   78  46  32 NW8       29.90R
NEWARK/LIBERTY PTSUNNY   76  49  38 W10G20    29.90R
BRNX BOT. GARD   N/A     75  50  41 N6        29.92S
TETERBORO      PTSUNNY   76  49  38 W7        29.88S
$$

NYZ177-179-078>081-292200-
LONG ISLAND NEW YORK

CITY           SKY/WX    TMP DP  RH WIND       PRES   REMARKS
FARMINGDALE    PTSUNNY   75  48  38 NW8       29.90R
ISLIP          PTSUNNY   79  49  34 W9        29.88R
SHIRLEY        PTSUNNY   74  56  53 S13       29.90R
WESTHAMPTON    MOSUNNY   74  55  51 SW12      29.91R
MONTAUK POINT    N/A     76  55  48 SW8       29.90R
$$

NYZ052-065-067-292200-
HUDSON VALLEY

CITY           SKY/WX    TMP DP  RH WIND       PRES   REMARKS
WHITE PLAINS   MOSUNNY   73  49  42 W10       29.90R
NEWBURGH       PTSUNNY   70  54  56 NW7       29.92R
MONTGOMERY     CLOUDY    72  51  47 NW6       29.91R
POUGHKEEPSIE   CLOUDY    73  51  46 NW6       29.89R
ALBANY         MOSUNNY   73  53  49 W10       29.89R
$$

NJZ001-105-106-008-010-013-015-019>022-104-292200-
NEW JERSEY

CITY           SKY/WX    TMP DP  RH WIND       PRES   REMARKS
NEWARK/LIBERTY PTSUNNY   76  49  38 W10G20    29.90R
TETERBORO      PTSUNNY   76  49  38 W7        29.88S
CALDWELL       PTSUNNY   73  49  42 NW6       29.91R
MORRISTOWN     PTSUNNY   75  50  41 NW6       29.91R
SOMERVILLE     CLOUDY    76  49  38 CALM      29.90R
LINDEN         MOCLDY    76  49  39 NW13      29.92R
SUSSEX         CLOUDY    73  51  46 W5        29.92R
ANDOVER          N/A     70  52  52 N3        29.93R
TRENTON        CLOUDY    73  52  47 NW5       29.92R
MILLVILLE      CLOUDY    72  57  59 SW5       29.92R
ATLANTIC CITY  CLOUDY    74  56  53 W7        29.91S
WRIGHTSTOWN    PTSUNNY   73  54  50 NW6       29.90R
TOMS RIVER     CLOUDY    75  54  46 W7        29.92R
BELMAR         PTSUNNY   73  52  46 W8        29.92R
$$

PAZ047>061-062-071-292200-
EASTERN PENNSYLVANIA

CITY           SKY/WX    TMP DP  RH WIND       PRES   REMARKS
PHILADELPHIA   CLOUDY    75  53  46 W8        29.92S
ALLENTOWN      CLOUDY    72  50  45 N8        29.93R
SCRANTON       CLOUDY    70  49  47 N3        29.94S
$$

CTZ002-004>006-009-010-012-RIZ004-006-007-MAZ004-011-015-292200-
SOUTHERN NEW ENGLAND
 IN CT

CITY           SKY/WX    TMP DP  RH WIND       PRES   REMARKS
BRADLEY INTL   PTSUNNY   74  49  41 NW8       29.88R
HARTFORD       CLOUDY    74  48  39 W6        29.88R
DANBURY        CLOUDY    72  50  45 VRB5      29.91R
WTRBRY/OXFORD  PTSUNNY   70  54  56 NW3       29.93R
BRIDGEPORT     MOSUNNY   76  56  49 SW13      29.89R
MERIDEN        CLOUDY    74  50  42 W7        29.89R
NEW HAVEN      PTSUNNY   75  57  53 SW6       29.89R
CHESTER        FAIR      73  57  56 W5        29.90R
GROTON         SUNNY     71  59  65 SW12      29.88R
WILLIMANTIC    PTSUNNY   74  52  46 NW7       29.89R

 IN RI

CITY           SKY/WX    TMP DP  RH WIND       PRES   REMARKS
PROVIDENCE     MOSUNNY   77  53  43 W12       29.87R
BLOCK ISLAND   SUNNY     75  55  50 W10       29.90R
WESTERLY       MOSUNNY   76  56  49 SW7       29.89R

 IN MA

CITY           SKY/WX    TMP DP  RH WIND       PRES   REMARKS
BOSTON         PTSUNNY   72  59  63 SE7       29.85R
WORCESTER      PTSUNNY   70  53  54 W8        29.90R
WESTFIELD      MOSUNNY   75  49  39 W8        29.88R
PROVINCETOWN   MOSUNNY   75  63  64 CALM      29.86S
NANTUCKET      SUNNY     69  62  78 SW10      29.89R
$$

ANZ330-335-338-340-345-350-353-355-292200-
COASTAL MARINE OBSERVATIONS


STATION/POSITION TIME  SKY/WX   TEMP    WIND        PRES    VSBY  WAVE
                                AIR SEA DIR/SP/G                  HT/PER
                 (UTC)          (F)     (DEG/KT/KT) (MB)    (MI)  (FT/S)
NY HARB ENTRANCE NOT AVBL
4S FIRE IS       NOT AVBL
23SW MTP         2100            72 71              1012.1          4/ 8
HUDSON CANYON    2100            70 75  280/  4/  6 1013.3          3/ 8
EXECUTION ROCKS  2100            74 71  320/ 10/ 14   N/A
WESTERN LI SOUND 2100            73     320/  6/  8   N/A           0
CENTRAL LI SOUND 2000            72 71  250/ 12/ 14   N/A           1/ 3
EASTERN LI SOUND 2000            70 67  240/ 10/ 14   N/A
ROBBINS REEF     2100            74     320/  9/ 14   N/A
$$


>>>>>>>>>>>>>>>>>>>>>>>>>>>> KEY <<<<<<<<<<<<<<<<<<<<<<<<<<<
>                                                          <
>     SKY/WX - SKY CONDITION/PRESENT WEATHER               <
>     TMP    - TEMPERATURE IN FAHRENHEIT                   <
>     DP     - DEWPOINT IN FAHRENHEIT                      <
>     RH     - RELATIVE HUMIDITY IN PERCENT                <
>     WIND   - DIRECTION AND SPEED IN MPH                  <
>     PRES   - MEAN SEA LEVEL PRESSURE IN INCHES OF HG     <
>     WCI    - WIND CHILL INDEX                            <
>     VSB    - VISIBILITY IN MILES                         <
>     HX     - HEAT INDEX                                  <
>     TC     - TEMPERATURE IN CELSIUS                      <
>     VRB    - VARIABLE WIND DIRECTION                     <
>                                                          <
>>>>>>>>>>>>>>>>>>>>>>>>>>>> KEY <<<<<<<<<<<<<<<<<<<<<<<<<<<





USA.gov is the U.S. government's official web portal to all federal, state and local government web resources and services.